Year,Month,Day,Hour,Minute,Value (Times are PST for temperature in C)
2021,12,03,00,00,0.40
2021,12,03,00,01,0.40
2021,12,03,00,02,0.40
2021,12,03,00,03,0.40
2021,12,03,00,04,0.40
2021,12,03,00,05,0.40
2021,12,03,00,06,0.40
2021,12,03,00,07,0.40
2021,12,03,00,08,0.50
2021,12,03,00,09,0.50
2021,12,03,00,10,0.50
2021,12,03,00,11,0.60
2021,12,03,00,12,0.60
2021,12,03,00,13,0.60
2021,12,03,00,14,0.60
2021,12,03,00,15,0.60
2021,12,03,00,16,0.60
2021,12,03,00,17,0.70
2021,12,03,00,18,0.70
2021,12,03,00,19,0.80
2021,12,03,00,20,0.90
2021,12,03,00,21,1.00
2021,12,03,00,22,1.10
2021,12,03,00,23,1.10
2021,12,03,00,24,1.20
2021,12,03,00,25,1.10
2021,12,03,00,26,1.20
2021,12,03,00,27,1.20
2021,12,03,00,28,1.20
2021,12,03,00,29,1.20
2021,12,03,00,30,1.20
2021,12,03,00,31,1.30
2021,12,03,00,32,1.40
2021,12,03,00,33,1.50
2021,12,03,00,34,1.50
2021,12,03,00,35,1.60
2021,12,03,00,36,1.50
2021,12,03,00,37,1.50
2021,12,03,00,38,1.40
2021,12,03,00,39,1.40
2021,12,03,00,40,1.40
2021,12,03,00,41,1.40
2021,12,03,00,42,1.40
2021,12,03,00,43,1.30
2021,12,03,00,44,1.30
2021,12,03,00,45,1.30
2021,12,03,00,46,1.20
2021,12,03,00,47,1.20
2021,12,03,00,48,1.20
2021,12,03,00,49,1.10
2021,12,03,00,50,1.10
2021,12,03,00,51,1.20
2021,12,03,00,52,1.20
2021,12,03,00,53,1.20
2021,12,03,00,54,1.20
2021,12,03,00,55,1.20
2021,12,03,00,56,1.20
2021,12,03,00,57,1.20
2021,12,03,00,58,1.10
2021,12,03,00,59,1.10
2021,12,03,01,00,1.10
2021,12,03,01,01,1.10
2021,12,03,01,02,1.10
2021,12,03,01,03,1.10
2021,12,03,01,04,1.10
2021,12,03,01,05,1.10
2021,12,03,01,06,1.10
2021,12,03,01,07,1.10
2021,12,03,01,08,1.10
2021,12,03,01,09,1.10
2021,12,03,01,10,1.10
2021,12,03,01,11,1.10
2021,12,03,01,12,1.10
2021,12,03,01,13,1.10
2021,12,03,01,14,1.10
2021,12,03,01,15,1.10
2021,12,03,01,16,1.10
2021,12,03,01,17,1.00
2021,12,03,01,18,1.00
2021,12,03,01,19,1.00
2021,12,03,01,20,0.90
2021,12,03,01,21,0.90
2021,12,03,01,22,0.90
2021,12,03,01,23,0.90
2021,12,03,01,24,0.90
2021,12,03,01,25,0.90
2021,12,03,01,26,0.90
2021,12,03,01,27,0.90
2021,12,03,01,28,0.90
2021,12,03,01,29,1.00
2021,12,03,01,30,1.00
2021,12,03,01,31,1.10
2021,12,03,01,32,1.10
2021,12,03,01,33,1.10
2021,12,03,01,34,1.10
2021,12,03,01,35,1.10
2021,12,03,01,36,1.10
2021,12,03,01,37,1.10
2021,12,03,01,38,1.10
2021,12,03,01,39,1.10
2021,12,03,01,40,1.10
2021,12,03,01,41,1.10
2021,12,03,01,42,1.10
2021,12,03,01,43,1.00
2021,12,03,01,44,1.00
2021,12,03,01,45,1.00
2021,12,03,01,46,1.00
2021,12,03,01,47,1.00
2021,12,03,01,48,1.00
2021,12,03,01,49,1.00
2021,12,03,01,50,1.00
2021,12,03,01,51,1.10
2021,12,03,01,52,1.10
2021,12,03,01,53,1.10
2021,12,03,01,54,1.00
2021,12,03,01,55,1.00
2021,12,03,01,56,1.00
2021,12,03,01,57,0.90
2021,12,03,01,58,0.90
2021,12,03,01,59,0.80
2021,12,03,02,00,0.80
2021,12,03,02,01,0.80
2021,12,03,02,02,0.80
2021,12,03,02,03,0.70
2021,12,03,02,04,0.70
2021,12,03,02,05,0.70
2021,12,03,02,06,0.70
2021,12,03,02,07,0.70
2021,12,03,02,08,0.70
2021,12,03,02,09,0.70
2021,12,03,02,10,0.60
2021,12,03,02,11,0.60
2021,12,03,02,12,0.60
2021,12,03,02,13,0.60
2021,12,03,02,14,0.60
2021,12,03,02,15,0.60
2021,12,03,02,16,0.60
2021,12,03,02,17,0.60
2021,12,03,02,18,0.60
2021,12,03,02,19,0.50
2021,12,03,02,20,0.50
2021,12,03,02,21,0.50
2021,12,03,02,22,0.50
2021,12,03,02,23,0.40
2021,12,03,02,24,0.40
2021,12,03,02,25,0.40
2021,12,03,02,26,0.40
2021,12,03,02,27,0.40
2021,12,03,02,28,0.40
2021,12,03,02,29,0.40
2021,12,03,02,30,0.40
2021,12,03,02,31,0.50
2021,12,03,02,32,0.60
2021,12,03,02,33,0.60
2021,12,03,02,34,0.70
2021,12,03,02,35,0.70
2021,12,03,02,36,0.70
2021,12,03,02,37,0.80
2021,12,03,02,38,0.80
2021,12,03,02,39,0.80
2021,12,03,02,40,0.90
2021,12,03,02,41,0.90
2021,12,03,02,42,0.90
2021,12,03,02,43,1.00
2021,12,03,02,44,1.00
2021,12,03,02,45,1.10
2021,12,03,02,46,1.10
2021,12,03,02,47,1.10
2021,12,03,02,48,1.10
2021,12,03,02,49,1.10
2021,12,03,02,50,1.10
2021,12,03,02,51,1.10
2021,12,03,02,52,1.10
2021,12,03,02,53,1.00
2021,12,03,02,54,1.00
2021,12,03,02,55,1.00
2021,12,03,02,56,1.00
2021,12,03,02,57,1.00
2021,12,03,02,58,1.00
2021,12,03,02,59,1.10
2021,12,03,03,00,1.10
2021,12,03,03,01,1.10
2021,12,03,03,02,1.20
2021,12,03,03,03,1.20
2021,12,03,03,04,1.20
2021,12,03,03,05,1.30
2021,12,03,03,06,1.30
2021,12,03,03,07,1.30
2021,12,03,03,08,1.40
2021,12,03,03,09,1.40
2021,12,03,03,10,1.40
2021,12,03,03,11,1.40
2021,12,03,03,12,1.50
2021,12,03,03,13,1.50
2021,12,03,03,14,1.60
2021,12,03,03,15,1.60
2021,12,03,03,16,1.70
2021,12,03,03,17,1.80
2021,12,03,03,18,1.80
2021,12,03,03,19,1.90
2021,12,03,03,20,1.90
2021,12,03,03,21,2.00
2021,12,03,03,22,2.00
2021,12,03,03,23,2.10
2021,12,03,03,24,2.10
2021,12,03,03,25,2.10
2021,12,03,03,26,2.10
2021,12,03,03,27,2.10
2021,12,03,03,28,2.10
2021,12,03,03,29,2.10
2021,12,03,03,30,2.10
2021,12,03,03,31,2.10
2021,12,03,03,32,2.10
2021,12,03,03,33,2.10
2021,12,03,03,34,2.10
2021,12,03,03,35,2.10
2021,12,03,03,36,2.10
2021,12,03,03,37,2.10
2021,12,03,03,38,2.00
2021,12,03,03,39,2.00
2021,12,03,03,40,2.00
2021,12,03,03,41,2.00
2021,12,03,03,42,2.00
2021,12,03,03,43,1.90
2021,12,03,03,44,1.90
2021,12,03,03,45,1.90
2021,12,03,03,46,1.90
2021,12,03,03,47,1.90
2021,12,03,03,48,2.00
2021,12,03,03,49,2.00
2021,12,03,03,50,2.00
2021,12,03,03,51,2.00
2021,12,03,03,52,2.10
2021,12,03,03,53,2.10
2021,12,03,03,54,2.10
2021,12,03,03,55,2.20
2021,12,03,03,56,2.20
2021,12,03,03,57,2.20
2021,12,03,03,58,2.20
2021,12,03,03,59,2.20
2021,12,03,04,00,2.30
2021,12,03,04,01,2.30
2021,12,03,04,02,2.30
2021,12,03,04,03,2.40
2021,12,03,04,04,2.40
2021,12,03,04,05,2.50
2021,12,03,04,06,2.60
2021,12,03,04,07,2.60
2021,12,03,04,08,2.70
2021,12,03,04,09,2.80
2021,12,03,04,10,2.80
2021,12,03,04,11,2.80
2021,12,03,04,12,2.80
2021,12,03,04,13,2.80
2021,12,03,04,14,2.80
2021,12,03,04,15,2.80
2021,12,03,04,16,2.80
2021,12,03,04,17,2.80
2021,12,03,04,18,2.80
2021,12,03,04,19,2.80
2021,12,03,04,20,2.80
2021,12,03,04,21,2.80
2021,12,03,04,22,2.80
2021,12,03,04,23,2.70
2021,12,03,04,24,2.70
2021,12,03,04,25,2.70
2021,12,03,04,26,2.70
2021,12,03,04,27,2.70
2021,12,03,04,28,2.70
2021,12,03,04,29,2.70
2021,12,03,04,30,2.70
2021,12,03,04,31,2.70
2021,12,03,04,32,2.70
2021,12,03,04,33,2.70
2021,12,03,04,34,2.70
2021,12,03,04,35,2.70
2021,12,03,04,36,2.70
2021,12,03,04,37,2.70
2021,12,03,04,38,2.70
2021,12,03,04,39,2.70
2021,12,03,04,40,2.70
2021,12,03,04,41,2.70
2021,12,03,04,42,2.60
2021,12,03,04,43,2.60
2021,12,03,04,44,2.60
2021,12,03,04,45,2.60
2021,12,03,04,46,2.70
2021,12,03,04,47,2.70
2021,12,03,04,48,2.70
2021,12,03,04,49,2.60
2021,12,03,04,50,2.60
2021,12,03,04,51,2.60
2021,12,03,04,52,2.60
2021,12,03,04,53,2.60
2021,12,03,04,54,2.60
2021,12,03,04,55,2.60
2021,12,03,04,56,2.60
2021,12,03,04,57,2.60
2021,12,03,04,58,2.60
2021,12,03,04,59,2.60
2021,12,03,05,00,2.60
2021,12,03,05,01,2.60
2021,12,03,05,02,2.60
2021,12,03,05,03,2.60
2021,12,03,05,04,2.60
2021,12,03,05,05,2.60
2021,12,03,05,06,2.60
2021,12,03,05,07,2.60
2021,12,03,05,08,2.60
2021,12,03,05,09,2.70
2021,12,03,05,10,2.70
2021,12,03,05,11,2.80
2021,12,03,05,12,2.80
2021,12,03,05,13,2.80
2021,12,03,05,14,2.80
2021,12,03,05,15,2.90
2021,12,03,05,16,2.90
2021,12,03,05,17,2.90
2021,12,03,05,18,2.90
2021,12,03,05,19,2.90
2021,12,03,05,20,2.90
2021,12,03,05,21,2.90
2021,12,03,05,22,3.00
2021,12,03,05,23,3.00
2021,12,03,05,24,3.00
2021,12,03,05,25,3.00
2021,12,03,05,26,3.00
2021,12,03,05,27,2.90
2021,12,03,05,28,2.90
2021,12,03,05,29,3.00
2021,12,03,05,30,3.00
2021,12,03,05,31,3.00
2021,12,03,05,32,3.10
2021,12,03,05,33,3.10
2021,12,03,05,34,3.10
2021,12,03,05,35,3.10
2021,12,03,05,36,3.10
2021,12,03,05,37,3.10
2021,12,03,05,38,3.10
2021,12,03,05,39,3.10
2021,12,03,05,40,3.10
2021,12,03,05,41,3.10
2021,12,03,05,42,3.20
2021,12,03,05,43,3.20
2021,12,03,05,44,3.20
2021,12,03,05,45,3.20
2021,12,03,05,46,3.20
2021,12,03,05,47,3.20
2021,12,03,05,48,3.20
2021,12,03,05,49,3.10
2021,12,03,05,50,3.10
2021,12,03,05,51,3.10
2021,12,03,05,52,3.10
2021,12,03,05,53,3.10
2021,12,03,05,54,3.00
2021,12,03,05,55,3.00
2021,12,03,05,56,3.00
2021,12,03,05,57,3.00
2021,12,03,05,58,3.00
2021,12,03,05,59,3.00
2021,12,03,06,00,3.00
2021,12,03,06,01,3.00
2021,12,03,06,02,3.00
2021,12,03,06,03,2.90
2021,12,03,06,04,2.90
2021,12,03,06,05,2.90
2021,12,03,06,06,2.90
2021,12,03,06,07,2.90
2021,12,03,06,08,3.00
2021,12,03,06,09,3.00
2021,12,03,06,10,3.00
2021,12,03,06,11,3.00
2021,12,03,06,12,3.00
2021,12,03,06,13,3.00
2021,12,03,06,14,3.00
2021,12,03,06,15,3.00
2021,12,03,06,16,3.00
2021,12,03,06,17,3.00
2021,12,03,06,18,2.90
2021,12,03,06,19,2.90
2021,12,03,06,20,2.90
2021,12,03,06,21,2.90
2021,12,03,06,22,2.90
2021,12,03,06,23,2.90
2021,12,03,06,24,2.90
2021,12,03,06,25,2.90
2021,12,03,06,26,2.90
2021,12,03,06,27,2.80
2021,12,03,06,28,2.80
2021,12,03,06,29,2.80
2021,12,03,06,30,2.80
2021,12,03,06,31,2.80
2021,12,03,06,32,2.80
2021,12,03,06,33,2.80
2021,12,03,06,34,2.80
2021,12,03,06,35,2.80
2021,12,03,06,36,2.80
2021,12,03,06,37,2.70
2021,12,03,06,38,2.80
2021,12,03,06,39,2.80
2021,12,03,06,40,2.80
2021,12,03,06,41,2.70
2021,12,03,06,42,2.70
2021,12,03,06,43,2.70
2021,12,03,06,44,2.70
2021,12,03,06,45,2.60
2021,12,03,06,46,2.60
2021,12,03,06,47,2.60
2021,12,03,06,48,2.60
2021,12,03,06,49,2.50
2021,12,03,06,50,2.50
2021,12,03,06,51,2.50
2021,12,03,06,52,2.40
2021,12,03,06,53,2.40
2021,12,03,06,54,2.40
2021,12,03,06,55,2.40
2021,12,03,06,56,2.40
2021,12,03,06,57,2.40
2021,12,03,06,58,2.40
2021,12,03,06,59,2.40
2021,12,03,07,00,2.30
2021,12,03,07,01,2.30
2021,12,03,07,02,2.30
2021,12,03,07,03,2.30
2021,12,03,07,04,2.30
2021,12,03,07,05,2.30
2021,12,03,07,06,2.30
2021,12,03,07,07,2.30
2021,12,03,07,08,2.30
2021,12,03,07,09,2.30
2021,12,03,07,10,2.20
2021,12,03,07,11,2.20
2021,12,03,07,12,2.20
2021,12,03,07,13,2.20
2021,12,03,07,14,2.20
2021,12,03,07,15,2.20
2021,12,03,07,16,2.20
2021,12,03,07,17,2.20
2021,12,03,07,18,2.20
2021,12,03,07,19,2.20
2021,12,03,07,20,2.20
2021,12,03,07,21,2.10
2021,12,03,07,22,2.10
2021,12,03,07,23,2.10
2021,12,03,07,24,2.10
2021,12,03,07,25,2.10
2021,12,03,07,26,2.10
2021,12,03,07,27,2.00
2021,12,03,07,28,2.00
2021,12,03,07,29,2.00
2021,12,03,07,30,2.00
2021,12,03,07,31,2.00
2021,12,03,07,32,1.90
2021,12,03,07,33,1.90
2021,12,03,07,34,1.90
2021,12,03,07,35,1.90
2021,12,03,07,36,2.00
2021,12,03,07,37,2.00
2021,12,03,07,38,2.00
2021,12,03,07,39,1.90
2021,12,03,07,40,1.90
2021,12,03,07,41,1.90
2021,12,03,07,42,1.90
2021,12,03,07,43,1.90
2021,12,03,07,44,1.90
2021,12,03,07,45,1.90
2021,12,03,07,46,1.90
2021,12,03,07,47,1.90
2021,12,03,07,48,1.90
2021,12,03,07,49,1.90
2021,12,03,07,50,1.90
2021,12,03,07,51,2.00
2021,12,03,07,52,2.00
2021,12,03,07,53,2.00
2021,12,03,07,54,2.00
2021,12,03,07,55,2.00
2021,12,03,07,56,1.90
2021,12,03,07,57,1.90
2021,12,03,07,58,1.90
2021,12,03,07,59,1.90
2021,12,03,08,00,1.90
2021,12,03,08,01,1.90
2021,12,03,08,02,1.90
2021,12,03,08,03,1.90
2021,12,03,08,04,2.00
2021,12,03,08,05,2.00
2021,12,03,08,06,2.10
2021,12,03,08,07,2.10
2021,12,03,08,08,2.10
2021,12,03,08,09,2.20
2021,12,03,08,10,2.20
2021,12,03,08,11,2.20
2021,12,03,08,12,2.20
2021,12,03,08,13,2.30
2021,12,03,08,14,2.30
2021,12,03,08,15,2.30
2021,12,03,08,16,2.30
2021,12,03,08,17,2.30
2021,12,03,08,18,2.30
2021,12,03,08,19,2.30
2021,12,03,08,20,2.30
2021,12,03,08,21,2.30
2021,12,03,08,22,2.40
2021,12,03,08,23,2.40
2021,12,03,08,24,2.40
2021,12,03,08,25,2.40
2021,12,03,08,26,2.40
2021,12,03,08,27,2.40
2021,12,03,08,28,2.40
2021,12,03,08,29,2.40
2021,12,03,08,30,2.50
2021,12,03,08,31,2.50
2021,12,03,08,32,2.50
2021,12,03,08,33,2.60
2021,12,03,08,34,2.60
2021,12,03,08,35,2.60
2021,12,03,08,36,2.60
2021,12,03,08,37,2.60
2021,12,03,08,38,2.70
2021,12,03,08,39,2.70
2021,12,03,08,40,2.70
2021,12,03,08,41,2.80
2021,12,03,08,42,2.80
2021,12,03,08,43,2.80
2021,12,03,08,44,2.80
2021,12,03,08,45,2.90
2021,12,03,08,46,2.90
2021,12,03,08,47,2.90
2021,12,03,08,48,3.00
2021,12,03,08,49,3.00
2021,12,03,08,50,3.00
2021,12,03,08,51,3.00
2021,12,03,08,52,3.10
2021,12,03,08,53,3.10
2021,12,03,08,54,3.10
2021,12,03,08,55,3.10
2021,12,03,08,56,3.10
2021,12,03,08,57,3.10
2021,12,03,08,58,3.20
2021,12,03,08,59,3.20
2021,12,03,09,00,3.20
2021,12,03,09,01,3.20
2021,12,03,09,02,3.20
2021,12,03,09,03,3.30
2021,12,03,09,04,3.30
2021,12,03,09,05,3.30
2021,12,03,09,06,3.40
2021,12,03,09,07,3.40
2021,12,03,09,08,3.40
2021,12,03,09,09,3.40
2021,12,03,09,10,3.40
2021,12,03,09,11,3.40
2021,12,03,09,12,3.40
2021,12,03,09,13,3.40
2021,12,03,09,14,3.50
2021,12,03,09,15,3.50
2021,12,03,09,16,3.50
2021,12,03,09,17,3.50
2021,12,03,09,18,3.50
2021,12,03,09,19,3.50
2021,12,03,09,20,3.60
2021,12,03,09,21,3.60
2021,12,03,09,22,3.60
2021,12,03,09,23,3.60
2021,12,03,09,24,3.60
2021,12,03,09,25,3.60
2021,12,03,09,26,3.60
2021,12,03,09,27,3.70
2021,12,03,09,28,3.70
2021,12,03,09,29,3.70
2021,12,03,09,30,3.70
2021,12,03,09,31,3.70
2021,12,03,09,32,3.70
2021,12,03,09,33,3.70
2021,12,03,09,34,3.80
2021,12,03,09,35,3.80
2021,12,03,09,36,3.80
2021,12,03,09,37,3.80
2021,12,03,09,38,3.80
2021,12,03,09,39,3.80
2021,12,03,09,40,3.80
2021,12,03,09,41,3.80
2021,12,03,09,42,3.80
2021,12,03,09,43,3.80
2021,12,03,09,44,3.90
2021,12,03,09,45,3.90
2021,12,03,09,46,3.90
2021,12,03,09,47,3.90
2021,12,03,09,48,3.90
2021,12,03,09,49,3.90
2021,12,03,09,50,4.00
2021,12,03,09,51,4.00
2021,12,03,09,52,4.00
2021,12,03,09,53,4.10
2021,12,03,09,54,4.10
2021,12,03,09,55,4.10
2021,12,03,09,56,4.10
2021,12,03,09,57,4.10
2021,12,03,09,58,4.20
2021,12,03,09,59,4.20
2021,12,03,10,00,4.20
2021,12,03,10,01,4.20
2021,12,03,10,02,4.20
2021,12,03,10,03,4.20
2021,12,03,10,04,4.20
2021,12,03,10,05,4.20
2021,12,03,10,06,4.20
2021,12,03,10,07,4.30
2021,12,03,10,08,4.20
2021,12,03,10,09,4.30
2021,12,03,10,10,4.30
2021,12,03,10,11,4.30
2021,12,03,10,12,4.30
2021,12,03,10,13,4.30
2021,12,03,10,14,4.30
2021,12,03,10,15,4.30
2021,12,03,10,16,4.30
2021,12,03,10,17,4.30
2021,12,03,10,18,4.40
2021,12,03,10,19,4.40
2021,12,03,10,20,4.40
2021,12,03,10,21,4.40
2021,12,03,10,22,4.40
2021,12,03,10,23,4.40
2021,12,03,10,24,4.40
2021,12,03,10,25,4.40
2021,12,03,10,26,4.40
2021,12,03,10,27,4.50
2021,12,03,10,28,4.50
2021,12,03,10,29,4.50
2021,12,03,10,30,4.50
2021,12,03,10,31,4.60
2021,12,03,10,32,4.60
2021,12,03,10,33,4.60
2021,12,03,10,34,4.60
2021,12,03,10,35,4.60
2021,12,03,10,36,4.60
2021,12,03,10,37,4.60
2021,12,03,10,38,4.60
2021,12,03,10,39,4.60
2021,12,03,10,40,4.60
2021,12,03,10,41,4.60
2021,12,03,10,42,4.70
2021,12,03,10,43,4.70
2021,12,03,10,44,4.70
2021,12,03,10,45,4.70
2021,12,03,10,46,4.70
2021,12,03,10,47,4.70
2021,12,03,10,48,4.70
2021,12,03,10,49,4.70
2021,12,03,10,50,4.70
2021,12,03,10,51,4.70
2021,12,03,10,52,4.70
2021,12,03,10,53,4.80
2021,12,03,10,54,4.80
2021,12,03,10,55,4.80
2021,12,03,10,56,4.80
2021,12,03,10,57,4.80
2021,12,03,10,58,4.80
2021,12,03,10,59,4.80
2021,12,03,11,00,4.80
2021,12,03,11,01,4.80
2021,12,03,11,02,4.80
2021,12,03,11,03,4.80
2021,12,03,11,04,4.80
2021,12,03,11,05,4.90
2021,12,03,11,06,4.90
2021,12,03,11,07,4.90
2021,12,03,11,08,4.90
2021,12,03,11,09,4.90
2021,12,03,11,10,4.90
2021,12,03,11,11,4.90
2021,12,03,11,12,4.90
2021,12,03,11,13,5.00
2021,12,03,11,14,5.00
2021,12,03,11,15,5.00
2021,12,03,11,16,5.10
2021,12,03,11,17,5.10
2021,12,03,11,18,5.10
2021,12,03,11,19,5.10
2021,12,03,11,20,5.20
2021,12,03,11,21,5.20
2021,12,03,11,22,5.20
2021,12,03,11,23,5.20
2021,12,03,11,24,5.30
2021,12,03,11,25,5.30
2021,12,03,11,26,5.30
2021,12,03,11,27,5.30
2021,12,03,11,28,5.30
2021,12,03,11,29,5.30
2021,12,03,11,30,5.30
2021,12,03,11,31,5.30
2021,12,03,11,32,5.30
2021,12,03,11,33,5.30
2021,12,03,11,34,5.40
2021,12,03,11,35,5.40
2021,12,03,11,36,5.40
2021,12,03,11,37,5.40
2021,12,03,11,38,5.40
2021,12,03,11,39,5.40
2021,12,03,11,40,5.40
2021,12,03,11,41,5.50
2021,12,03,11,42,5.50
2021,12,03,11,43,5.50
2021,12,03,11,44,5.50
2021,12,03,11,45,5.60
2021,12,03,11,46,5.60
2021,12,03,11,47,5.60
2021,12,03,11,48,5.70
2021,12,03,11,49,5.70
2021,12,03,11,50,5.70
2021,12,03,11,51,5.80
2021,12,03,11,52,5.80
2021,12,03,11,53,5.80
2021,12,03,11,54,5.80
2021,12,03,11,55,5.80
2021,12,03,11,56,5.90
2021,12,03,11,57,5.90
2021,12,03,11,58,5.90
2021,12,03,11,59,5.90
2021,12,03,12,00,5.90
2021,12,03,12,01,5.90
2021,12,03,12,02,5.90
2021,12,03,12,03,5.80
2021,12,03,12,04,5.80
2021,12,03,12,05,5.90
2021,12,03,12,06,5.90
2021,12,03,12,07,5.90
2021,12,03,12,08,5.90
2021,12,03,12,09,5.90
2021,12,03,12,10,5.90
2021,12,03,12,11,5.90
2021,12,03,12,12,5.90
2021,12,03,12,13,6.00
2021,12,03,12,14,5.90
2021,12,03,12,15,5.90
2021,12,03,12,16,5.90
2021,12,03,12,17,5.90
2021,12,03,12,18,5.90
2021,12,03,12,19,5.90
2021,12,03,12,20,5.90
2021,12,03,12,21,5.90
2021,12,03,12,22,5.80
2021,12,03,12,23,5.80
2021,12,03,12,24,5.90
2021,12,03,12,25,5.90
2021,12,03,12,26,5.90
2021,12,03,12,27,5.90
2021,12,03,12,28,5.90
2021,12,03,12,29,5.90
2021,12,03,12,30,5.90
2021,12,03,12,31,5.90
2021,12,03,12,32,6.00
2021,12,03,12,33,6.00
2021,12,03,12,34,6.00
2021,12,03,12,35,6.00
2021,12,03,12,36,6.10
2021,12,03,12,37,6.10
2021,12,03,12,38,6.10
2021,12,03,12,39,6.10
2021,12,03,12,40,6.10
2021,12,03,12,41,6.10
2021,12,03,12,42,6.10
2021,12,03,12,43,6.10
2021,12,03,12,44,6.10
2021,12,03,12,45,6.10
2021,12,03,12,46,6.10
2021,12,03,12,47,6.10
2021,12,03,12,48,6.10
2021,12,03,12,49,6.20
2021,12,03,12,50,6.20
2021,12,03,12,51,6.20
2021,12,03,12,52,6.20
2021,12,03,12,53,6.20
2021,12,03,12,54,6.20
2021,12,03,12,55,6.20
2021,12,03,12,56,6.20
2021,12,03,12,57,6.20
2021,12,03,12,58,6.20
2021,12,03,12,59,6.30
2021,12,03,13,00,6.30
2021,12,03,13,01,6.30
2021,12,03,13,02,6.20
2021,12,03,13,03,6.30
2021,12,03,13,04,6.30
2021,12,03,13,05,6.30
2021,12,03,13,06,6.30
2021,12,03,13,07,6.20
2021,12,03,13,08,6.20
2021,12,03,13,09,6.20
2021,12,03,13,10,6.30
2021,12,03,13,11,6.30
2021,12,03,13,12,6.40
2021,12,03,13,13,6.40
2021,12,03,13,14,6.40
2021,12,03,13,15,6.50
2021,12,03,13,16,6.50
2021,12,03,13,17,6.50
2021,12,03,13,18,6.50
2021,12,03,13,19,6.50
2021,12,03,13,20,6.50
2021,12,03,13,21,6.40
2021,12,03,13,22,6.40
2021,12,03,13,23,6.40
2021,12,03,13,24,6.40
2021,12,03,13,25,6.40
2021,12,03,13,26,6.40
2021,12,03,13,27,6.40
2021,12,03,13,28,6.40
2021,12,03,13,29,6.40
2021,12,03,13,30,6.30
2021,12,03,13,31,6.30
2021,12,03,13,32,6.30
2021,12,03,13,33,6.30
2021,12,03,13,34,6.30
2021,12,03,13,35,6.30
2021,12,03,13,36,6.30
2021,12,03,13,37,6.40
2021,12,03,13,38,6.30
2021,12,03,13,39,6.30
2021,12,03,13,40,6.30
2021,12,03,13,41,6.30
2021,12,03,13,42,6.30
2021,12,03,13,43,6.30
2021,12,03,13,44,6.30
2021,12,03,13,45,6.30
2021,12,03,13,46,6.30
2021,12,03,13,47,6.30
2021,12,03,13,48,6.30
2021,12,03,13,49,6.40
2021,12,03,13,50,6.40
2021,12,03,13,51,6.40
2021,12,03,13,52,6.40
2021,12,03,13,53,6.40
2021,12,03,13,54,6.40
2021,12,03,13,55,6.40
2021,12,03,13,56,6.40
2021,12,03,13,57,6.40
2021,12,03,13,58,6.40
2021,12,03,13,59,6.30
2021,12,03,14,00,6.30
2021,12,03,14,01,6.30
2021,12,03,14,02,6.30
2021,12,03,14,03,6.30
2021,12,03,14,04,6.30
2021,12,03,14,05,6.30
2021,12,03,14,06,6.30
2021,12,03,14,07,6.30
2021,12,03,14,08,6.30
2021,12,03,14,09,6.30
2021,12,03,14,10,6.30
2021,12,03,14,11,6.30
2021,12,03,14,12,6.30
2021,12,03,14,13,6.30
2021,12,03,14,14,6.30
2021,12,03,14,15,6.30
2021,12,03,14,16,6.30
2021,12,03,14,17,6.30
2021,12,03,14,18,6.30
2021,12,03,14,19,6.30
2021,12,03,14,20,6.30
2021,12,03,14,21,6.30
2021,12,03,14,22,6.30
2021,12,03,14,23,6.20
2021,12,03,14,24,6.20
2021,12,03,14,25,6.20
2021,12,03,14,26,6.30
2021,12,03,14,27,6.30
2021,12,03,14,28,6.30
2021,12,03,14,29,6.30
2021,12,03,14,30,6.30
2021,12,03,14,31,6.30
2021,12,03,14,32,6.30
2021,12,03,14,33,6.30
2021,12,03,14,34,6.30
2021,12,03,14,35,6.30
2021,12,03,14,36,6.30
2021,12,03,14,37,6.30
2021,12,03,14,38,6.30
2021,12,03,14,39,6.30
2021,12,03,14,40,6.30
2021,12,03,14,41,6.40
2021,12,03,14,42,6.40
2021,12,03,14,43,6.40
2021,12,03,14,44,6.30
2021,12,03,14,45,6.30
2021,12,03,14,46,6.40
2021,12,03,14,47,6.40
2021,12,03,14,48,6.40
2021,12,03,14,49,6.40
2021,12,03,14,50,6.30
2021,12,03,14,51,6.30
2021,12,03,14,52,6.30
2021,12,03,14,53,6.30
2021,12,03,14,54,6.30
2021,12,03,14,55,6.30
2021,12,03,14,56,6.30
2021,12,03,14,57,6.30
2021,12,03,14,58,6.30
2021,12,03,14,59,6.30
2021,12,03,15,00,6.30
2021,12,03,15,01,6.30
2021,12,03,15,02,6.30
2021,12,03,15,03,6.30
2021,12,03,15,04,6.30
2021,12,03,15,05,6.30
2021,12,03,15,06,6.30
2021,12,03,15,07,6.30
2021,12,03,15,08,6.30
2021,12,03,15,09,6.30
2021,12,03,15,10,6.30
2021,12,03,15,11,6.30
2021,12,03,15,12,6.30
2021,12,03,15,13,6.30
2021,12,03,15,14,6.30
2021,12,03,15,15,6.30
2021,12,03,15,16,6.30
2021,12,03,15,17,6.30
2021,12,03,15,18,6.30
2021,12,03,15,19,6.30
2021,12,03,15,20,6.30
2021,12,03,15,21,6.20
2021,12,03,15,22,6.20
2021,12,03,15,23,6.20
2021,12,03,15,24,6.20
2021,12,03,15,25,6.20
2021,12,03,15,26,6.20
2021,12,03,15,27,6.10
2021,12,03,15,28,6.10
2021,12,03,15,29,6.10
2021,12,03,15,30,6.10
2021,12,03,15,31,6.10
2021,12,03,15,32,6.10
2021,12,03,15,33,6.10
2021,12,03,15,34,6.10
2021,12,03,15,35,6.10
2021,12,03,15,36,6.10
2021,12,03,15,37,6.10
2021,12,03,15,38,6.00
2021,12,03,15,39,6.00
2021,12,03,15,40,6.00
2021,12,03,15,41,6.00
2021,12,03,15,42,6.00
2021,12,03,15,43,6.00
2021,12,03,15,44,5.90
2021,12,03,15,45,5.90
2021,12,03,15,46,5.90
2021,12,03,15,47,5.90
2021,12,03,15,48,5.90
2021,12,03,15,49,5.90
2021,12,03,15,50,5.90
2021,12,03,15,51,5.90
2021,12,03,15,52,5.90
2021,12,03,15,53,5.90
2021,12,03,15,54,5.90
2021,12,03,15,55,5.90
2021,12,03,15,56,5.90
2021,12,03,15,57,5.90
2021,12,03,15,58,5.80
2021,12,03,15,59,5.80
2021,12,03,16,00,5.80
2021,12,03,16,01,5.80
2021,12,03,16,02,5.80
2021,12,03,16,03,5.80
2021,12,03,16,04,5.80
2021,12,03,16,05,5.80
2021,12,03,16,06,5.70
2021,12,03,16,07,5.70
2021,12,03,16,08,5.70
2021,12,03,16,09,5.70
2021,12,03,16,10,5.70
2021,12,03,16,11,5.70
2021,12,03,16,12,5.70
2021,12,03,16,13,5.70
2021,12,03,16,14,5.70
2021,12,03,16,15,5.70
2021,12,03,16,16,5.70
2021,12,03,16,17,5.60
2021,12,03,16,18,5.60
2021,12,03,16,19,5.60
2021,12,03,16,20,5.60
2021,12,03,16,21,5.60
2021,12,03,16,22,5.60
2021,12,03,16,23,5.60
2021,12,03,16,24,5.60
2021,12,03,16,25,5.60
2021,12,03,16,26,5.60
2021,12,03,16,27,5.50
2021,12,03,16,28,5.50
2021,12,03,16,29,5.50
2021,12,03,16,30,5.50
2021,12,03,16,31,5.50
2021,12,03,16,32,5.40
2021,12,03,16,33,5.40
2021,12,03,16,34,5.40
2021,12,03,16,35,5.40
2021,12,03,16,36,5.40
2021,12,03,16,37,5.40
2021,12,03,16,38,5.40
2021,12,03,16,39,5.40
2021,12,03,16,40,5.40
2021,12,03,16,41,5.40
2021,12,03,16,42,5.40
2021,12,03,16,43,5.30
2021,12,03,16,44,5.30
2021,12,03,16,45,5.30
2021,12,03,16,46,5.30
2021,12,03,16,47,5.30
2021,12,03,16,48,5.30
2021,12,03,16,49,5.30
2021,12,03,16,50,5.30
2021,12,03,16,51,5.30
2021,12,03,16,52,5.30
2021,12,03,16,53,5.30
2021,12,03,16,54,5.30
2021,12,03,16,55,5.30
2021,12,03,16,56,5.30
2021,12,03,16,57,5.20
2021,12,03,16,58,5.20
2021,12,03,16,59,5.20
2021,12,03,17,00,5.20
2021,12,03,17,01,5.20
2021,12,03,17,02,5.20
2021,12,03,17,03,5.10
2021,12,03,17,04,5.10
2021,12,03,17,05,5.10
2021,12,03,17,06,5.10
2021,12,03,17,07,5.10
2021,12,03,17,08,5.00
2021,12,03,17,09,5.00
2021,12,03,17,10,5.00
2021,12,03,17,11,4.90
2021,12,03,17,12,4.90
2021,12,03,17,13,4.90
2021,12,03,17,14,4.80
2021,12,03,17,15,4.80
2021,12,03,17,16,4.80
2021,12,03,17,17,4.80
2021,12,03,17,18,4.70
2021,12,03,17,19,4.70
2021,12,03,17,20,4.70
2021,12,03,17,21,4.70
2021,12,03,17,22,4.70
2021,12,03,17,23,4.70
2021,12,03,17,24,4.60
2021,12,03,17,25,4.60
2021,12,03,17,26,4.60
2021,12,03,17,27,4.60
2021,12,03,17,28,4.60
2021,12,03,17,29,4.60
2021,12,03,17,30,4.60
2021,12,03,17,31,4.60
2021,12,03,17,32,4.50
2021,12,03,17,33,4.50
2021,12,03,17,34,4.50
2021,12,03,17,35,4.50
2021,12,03,17,36,4.50
2021,12,03,17,37,4.40
2021,12,03,17,38,4.40
2021,12,03,17,39,4.40
2021,12,03,17,40,4.40
2021,12,03,17,41,4.40
2021,12,03,17,42,4.40
2021,12,03,17,43,4.40
2021,12,03,17,44,4.40
2021,12,03,17,45,4.30
2021,12,03,17,46,4.30
2021,12,03,17,47,4.30
2021,12,03,17,48,4.30
2021,12,03,17,49,4.30
2021,12,03,17,50,4.30
2021,12,03,17,51,4.30
2021,12,03,17,52,4.30
2021,12,03,17,53,4.30
2021,12,03,17,54,4.30
2021,12,03,17,55,4.30
2021,12,03,17,56,4.30
2021,12,03,17,57,4.20
2021,12,03,17,58,4.20
2021,12,03,17,59,4.20
2021,12,03,18,00,4.20
2021,12,03,18,01,4.20
2021,12,03,18,02,4.20
2021,12,03,18,03,4.20
2021,12,03,18,04,4.20
2021,12,03,18,05,4.20
2021,12,03,18,06,4.20